User: anonymous   Login
Location: Unspecified
(0.0000°N, 0.0000°E)
Time: 01:59:55
(UTC+00:00)
Language:

PAYLOAD G - Orbit

View from above orbital plane
View from above orbital plane
View from above satellite
View from above satellite

Ground track
Ground track

The orbit data is extracted from the following two-line orbital elements,

1 27846U 03031G   17325.49534321  .00000051  00000-0  42803-4 0  9990
2 27846  98.6833 330.9128 0008507 221.4013 138.6521 14.22137742746821
Epoch (UTC): 21 November 2017 11:53:17
Eccentricity: 0.0008507
inclination: 98.6833°
perigee height: 812 km
apogee height: 824 km
right ascension of ascending node: 330.9128°
argument of perigee: 221.4013°
revolutions per day: 14.22137742
mean anomaly at epoch: 138.6521°
orbit number at epoch: 74682

The dashed part of the orbit path shows where the satellite is in the earth's shadow,  

DLR